Barrow: Past 24 Hour Conditions

 

Clyde Airport

08:00 PM EDT 25 October 2014
This table is a summary of hourly weather conditions for the past 24 hours.
Date / Time
(EDT)
Wind(knots) Conditions Visibility(km) Pressure(kPa) Air tempC) Relative humidity(%) Dew pointC) Wind Chill
25 October 2014
20:00 WNW 16 Mostly Cloudy 16 102.1 -15 79 -18 -26
19:00 WNW 17 Clear 16 102.1 -14 80 -17 -25
18:00 WNW 18 Mainly Clear 24 102.1 -15 81 -17 -26
17:00 WNW 18 Drifting Snow 24 102.1 -14 83 -17 -25
16:00 WNW 19 Drifting Snow 40 102.1 -14 83 -17 -26
15:00 WNW 17 Drifting Snow 40 102.0 -14 81 -17 -25
14:00 WNW 17 Drifting Snow 40 102.0 -14 80 -17 -25
13:00 WNW 14 Drifting Snow 40 102.0 -14 80 -17 -24
12:00 WNW 11 Drifting Snow 40 101.9 -14 80 -17 -24
11:00 WNW 17 Drifting Snow 40 101.9 -14 80 -16 -24
10:00 WNW 15 Drifting Snow 40 101.9 -14 79 -17 -25
9:00 NW 16 Drifting Snow 40 101.9 -13 79 -16 -24
8:00 NW 15 Mostly Cloudy 16 101.9 -13 79 -16 -23
7:00 NW 15 Mainly Clear 16 101.9 -13 79 -16 -24
6:00 WNW 17 Mostly Cloudy 16 101.8 -12 78 -15 -22
5:00 WNW 16 Cloudy 16 101.8 -10 78 -14 -20
4:00 WNW 17 Cloudy 16 101.8 -10 77 -14 -20
3:00 NW 16 Light Snow 16 101.7 -10 80 -13 -20
2:00 WNW 14 Light Snow 16 101.7 -10 81 -13 -19
1:00 WNW 14 Light Snow 16 101.6 -10 78 -13 -19
0:00 WNW 14 Light Snow 16 101.6 -10 78 -13 -19
24 October 2014
23:00 WNW 15 Cloudy 16 101.6 -10 76 -14 -19
22:00 WNW 12 Cloudy 16 101.6 -11 78 -14 -19
21:00 WNW 10 Cloudy 16 101.6 -11 80 -13 -18
20:00 WNW 12 Cloudy 16 101.5 -10 81 -13 -18
 
Map of Arctic - Eastern Arctic marine weather areas Baker Lake Airport Chesterfield Inlet Airport Coral Harbour Airport Gjoa Haven Airport Kugaaruk Airport Rankin Inlet Airport Shepherd Bay Airport Whale Cove Airport Arctic Bay Brevoort Island Qikiqtarjuaq Airport Cape Dorset Airport Cape Dyer Cape Hooper Clyde Airport Grise Fiord Airport Hall Beach Airport Igloolik Airport Iqaluit Airport Longstaff Bluff Pangnirtung Airport Pond Inlet Airport Repulse Bay Airport Resolute Airport Resolution Island Rowley Island Airport Taloyoak Airport Wager Bay Akulivik Airport Ivujivik Airport Puvirnituq Airport Kangiqsujuaq Airport Kangirsuk Airport Quaqtaq Airport Tasiujaq Airport Cape Kakkiviak Cape Kiglapait Nain Airport Saglek Cape Mercy Kimmirut Airport Aupaluk Airport Salluit Airport Kangiqsualujjuaq Airport Fort Ross
Legend: buoyBuoy land stationLand Station